ONEWEB-0535 (54147 NORAD) Tracking and Keplerian Element Data

This shows tracking and keplerian element data for the satellite.

Feedback or suggestion? Click here.




ElementValue
Catalog54147
NameONEWEB-0535
Epoch Orbit130
Epoch Day13.91667824
Epoch Year2023
RAAN193.535
Inclination87.9796
Eccentricity0.0010399
Argument of Perigee22.8653
Mean Anonmoly188.8591
Mean Motion13.33021354
Decay Rate-0.0001067
L11 54147U 22138AL 23013.91667824 -.00010670 00000+0 -21884-1 0 9998
L22 54147 87.9796 193.5350 0010399 22.8653 188.8591 13.33021354 1302



Live tracking and technical data element details for ONEWEB-0535 (NORAD 54147). ONEWEB-0535 can be tracked NOW for your location showing map with azimuth and elevation plus other details from your city location.







IsCatalogInMostPopularTable: catalog: 54147, numindb: 11
Update: records affected: 1



GetName: 54147 ONEWEB-0535

Hit Count: updated at: Fri, 27 Jan 2023 21:20:50 GMT